KB1DML-3 Weather Reports


Display with metric or nautical units.
time (UTC)temp
F
wind
direction
speed
MPH
gust
MPH
rain 1hr
in
rain 24hr
in
rain mn
in
humidity
%
barometer
mb
20260831231016 68 203 16.0 18.0 0.00 0.00 0.00 72 1016.3
20260831230515 68 203 15.0 18.0 0.00 0.00 0.00 72 1016.3
20260831230016 68 203 16.0 18.0 0.00 0.00 0.00 71 1016.3
20260831225516 68 203 15.0 18.0 0.00 0.00 0.00 71 1016.3
20260831225016 68 203 15.0 18.0 0.00 0.00 0.00 72 1016.4
20260831224515 69 203 14.0 17.0 0.00 0.00 0.00 71 1016.4
20260831224015 68 203 14.0 18.0 0.00 0.00 0.00 71 1016.4
20260831223536 68 203 14.0 16.0 0.00 0.00 0.00 72 1016.3
20260831223015 69 203 13.0 16.0 0.00 0.00 0.00 72 1016.3
20260831222516 68 180 13.0 15.0 0.00 0.00 0.00 70 1016.4
20260831222035 68 180 14.0 16.0 0.00 0.00 0.00 71 1016.4
20260831221516 68 180 14.0 17.0 0.00 0.00 0.00 72 1016.4
20260831221058 68 180 14.0 18.0 0.00 0.00 0.00 72 1016.4
20260831220515 68 180 15.0 17.0 0.00 0.00 0.00 73 1016.4
20260831220015 68 180 14.0 16.0 0.00 0.00 0.00 72 1016.4
20260831215536 68 180 14.0 17.0 0.00 0.00 0.00 70 1016.3
20260831215056 68 180 14.0 17.0 0.00 0.00 0.00 70 1016.4
20260831214515 68 180 13.0 17.0 0.00 0.00 0.00 71 1016.5
20260831214015 68 180 13.0 15.0 0.00 0.00 0.00 71 1016.6
20260831213515 68 180 14.0 16.0 0.00 0.00 0.00 69 1016.7
20260831213016 68 180 15.0 17.0 0.00 0.00 0.00 71 1016.7
20260831212515 68 180 14.0 17.0 0.00 0.00 0.00 70 1016.7
20260831212015 68 180 14.0 17.0 0.00 0.00 0.00 71 1016.7
20260831211516 68 180 14.0 17.0 0.00 0.00 0.00 70 1016.8
20260831211015 68 180 13.0 17.0 0.00 0.00 0.00 70 1016.8
20260831210515 69 203 14.0 17.0 0.00 0.00 0.00 69 1016.8
20260831210015 68 203 15.0 18.0 0.00 0.00 0.00 69 1016.8
20260831205515 68 180 15.0 17.0 0.00 0.00 0.00 69 1016.8
20260831205017 69 180 14.0 16.0 0.00 0.00 0.00 69 1016.9
20260831204537 69 203 14.0 17.0 0.00 0.00 0.00 69 1016.9
20260831204015 68 180 14.0 16.0 0.00 0.00 0.00 68 1016.9
20260831203515 68 180 13.0 15.0 0.00 0.00 0.00 69 1017.0
20260831203015 68 180 13.0 15.0 0.00 0.00 0.00 70 1017.0
20260831202556 68 180 13.0 15.0 0.00 0.00 0.00 68 1016.9
20260831202015 68 180 13.0 15.0 0.00 0.00 0.00 69 1016.9
20260831201515 68 180 13.0 15.0 0.00 0.00 0.00 68 1016.9
20260831201016 68 180 12.0 15.0 0.00 0.00 0.00 69 1017.0
20260831200516 68 180 13.0 15.0 0.00 0.00 0.00 69 1016.9
20260831200015 68 180 12.0 15.0 0.00 0.00 0.00 69 1016.9
20260831195537 68 180 12.0 15.0 0.00 0.00 0.00 68 1016.9
20260831195016 68 180 11.0 14.0 0.00 0.00 0.00 68 1016.9
20260831194556 68 180 12.0 15.0 0.00 0.00 0.00 69 1016.9
20260831194017 68 180 12.0 15.0 0.00 0.00 0.00 68 1016.9
20260831193518 69 180 12.0 15.0 0.00 0.00 0.00 69 1016.9
20260831193017 68 180 11.0 14.0 0.00 0.00 0.00 68 1016.9
20260831192517 68 180 11.0 14.0 0.00 0.00 0.00 69 1017.0
20260831192017 68 158 11.0 14.0 0.00 0.00 0.00 68 1017.0
20260831191517 68 158 12.0 14.0 0.00 0.00 0.00 69 1017.2
20260831191038 68 180 11.0 16.0 0.00 0.00 0.00 69 1017.2
20260831190517 69 180 10.0 14.0 0.00 0.00 0.00 69 1017.6
20260831190016 69 180 9.0 13.0 0.00 0.00 0.00 69 1017.6
20260831185517 68 180 11.0 14.0 0.00 0.00 0.00 69 1017.6
20260831185018 68 180 10.0 14.0 0.00 0.00 0.00 70 1017.7
20260831184517 68 180 10.0 13.0 0.00 0.00 0.00 69 1017.6
20260831184017 68 180 10.0 13.0 0.00 0.00 0.00 69 1017.6
20260831183517 68 180 10.0 13.0 0.00 0.00 0.00 70 1017.7
20260831183038 67 180 10.0 12.0 0.00 0.00 0.00 70 1017.7
20260831182517 67 180 10.0 12.0 0.00 0.00 0.00 69 1017.8
20260831182017 68 180 10.0 14.0 0.00 0.00 0.00 70 1017.7
20260831181537 67 180 10.0 12.0 0.00 0.00 0.00 69 1017.9
20260831181018 69 180 8.0 12.0 0.00 0.00 0.00 68 1017.8
20260831180538 68 158 8.0 13.0 0.00 0.00 0.00 69 1017.8
20260831180017 67 180 10.0 13.0 0.00 0.00 0.00 69 1017.9
20260831175538 67 180 9.0 11.0 0.00 0.00 0.00 69 1017.9
20260831175017 67 180 10.0 13.0 0.00 0.00 0.00 69 1018.0
20260831174518 67 180 10.0 12.0 0.00 0.00 0.00 68 1018.0
20260831174118 67 180 9.0 11.0 0.00 0.00 0.00 67 1018.1
20260831173538 67 180 9.0 11.0 0.00 0.00 0.00 67 1018.2
20260831173017 67 180 9.0 14.0 0.00 0.00 0.00 67 1018.2
20260831172518 67 180 8.0 11.0 0.00 0.00 0.00 67 1018.2
20260831172017 68 180 8.0 11.0 0.00 0.00 0.00 65 1018.2
20260831171517 68 180 8.0 14.0 0.00 0.00 0.00 68 1018.2
20260831171017 67 180 8.0 10.0 0.00 0.00 0.00 67 1018.3
20260831170517 68 180 8.0 11.0 0.00 0.00 0.00 67 1018.3
20260831170017 68 180 7.0 10.0 0.00 0.00 0.00 66 1018.4
20260831165518 68 180 7.0 10.0 0.00 0.00 0.00 67 1018.4
20260831165017 69 180 7.0 10.0 0.00 0.00 0.00 67 1018.4
20260831164517 69 158 7.0 11.0 0.00 0.00 0.00 66 1018.4
20260831164038 70 158 6.0 9.0 0.00 0.00 0.00 66 1018.5
20260831163537 70 113 5.0 8.0 0.00 0.00 0.00 65 1018.5
20260831163017 70 113 6.0 9.0 0.00 0.00 0.00 66 1018.5
20260831162517 70 113 5.0 8.0 0.00 0.00 0.00 66 1018.6
20260831162017 69 135 5.0 8.0 0.00 0.00 0.00 66 1018.6
20260831161517 70 113 6.0 8.0 0.00 0.00 0.00 66 1018.7
20260831161017 69 113 6.0 8.0 0.00 0.00 0.00 68 1018.7
20260831160538 69 113 6.0 9.0 0.00 0.00 0.00 68 1018.7
20260831160037 68 68 6.0 8.0 0.00 0.00 0.00 68 1018.8
20260831155517 68 68 7.0 10.0 0.00 0.00 0.00 68 1018.8
20260831155017 69 113 7.0 10.0 0.00 0.00 0.00 68 1018.8
20260831154517 69 113 6.0 8.0 0.00 0.00 0.00 68 1018.9
20260831154017 68 90 5.0 9.0 0.00 0.00 0.00 69 1018.9
20260831153517 68 68 5.0 9.0 0.00 0.00 0.00 69 1018.9
20260831153018 67 90 5.0 9.0 0.00 0.00 0.00 69 1019.0
20260831152517 68 68 7.0 11.0 0.00 0.00 0.00 69 1018.9
20260831152017 68 68 5.0 8.0 0.00 0.00 0.00 70 1018.9
20260831151517 67 90 5.0 8.0 0.00 0.00 0.00 70 1019.0
20260831151017 68 90 6.0 9.0 0.00 0.00 0.00 69 1018.9
20260831150517 68 68 7.0 12.0 0.00 0.00 0.00 69 1018.8
20260831150017 69 68 6.0 11.0 0.00 0.00 0.00 69 1018.8
20260831145537 69 68 5.0 11.0 0.00 0.00 0.00 70 1018.8
20260831145017 69 68 7.0 13.0 0.00 0.00 0.00 69 1018.7
20260831144517 69 45 7.0 12.0 0.00 0.00 0.00 69 1018.8
20260831144017 69 45 8.0 13.0 0.00 0.00 0.00 69 1018.7
20260831143517 69 45 8.0 12.0 0.00 0.00 0.00 69 1018.7
20260831143017 69 45 7.0 12.0 0.00 0.00 0.00 69 1018.7
20260831142518 69 45 8.0 12.0 0.00 0.00 0.00 69 1018.7
20260831142017 69 45 8.0 12.0 0.00 0.00 0.00 70 1018.6
20260831141517 69 45 8.0 11.0 0.00 0.00 0.00 69 1018.6
20260831141017 69 45 7.0 11.0 0.00 0.00 0.00 70 1018.7
20260831140517 69 45 6.0 12.0 0.00 0.00 0.00 69 1018.6
20260831140016 69 45 5.0 12.0 0.00 0.00 0.00 70 1018.6
20260831135517 69 45 8.0 13.0 0.00 0.00 0.00 70 1018.7
20260831135017 69 45 7.0 13.0 0.00 0.00 0.00 70 1018.5
20260831134517 69 45 8.0 11.0 0.00 0.00 0.00 70 1018.6
20260831134038 69 45 7.0 12.0 0.00 0.00 0.00 70 1018.7
20260831133517 69 68 5.0 10.0 0.00 0.00 0.00 69 1018.7
20260831133017 69 68 5.0 9.0 0.00 0.00 0.00 69 1018.8
20260831132517 68 68 5.0 11.0 0.00 0.00 0.00 70 1018.6
20260831132017 68 45 7.0 12.0 0.00 0.00 0.00 71 1018.5
20260831131517 68 45 8.0 13.0 0.00 0.00 0.00 71 1018.4
20260831131017 68 45 7.0 11.0 0.00 0.00 0.00 71 1018.3
20260831130516 68 45 7.0 11.0 0.00 0.00 0.00 71 1018.4
20260831130017 68 45 7.0 12.0 0.00 0.00 0.00 71 1018.4
20260831125537 68 45 8.0 13.0 0.00 0.00 0.00 71 1018.3
20260831125017 68 45 8.0 12.0 0.00 0.00 0.00 71 1018.2
20260831124537 68 45 10.0 14.0 0.00 0.00 0.00 71 1018.2
20260831124016 67 45 10.0 14.0 0.00 0.00 0.00 72 1018.0
20260831123516 67 68 10.0 14.0 0.00 0.00 0.00 72 1018.0
20260831123017 67 68 11.0 16.0 0.00 0.00 0.00 72 1018.0
20260831122517 67 45 11.0 14.0 0.00 0.00 0.00 73 1017.9
20260831122016 67 68 10.0 15.0 0.00 0.00 0.00 72 1017.9
20260831121517 67 68 10.0 15.0 0.00 0.00 0.00 73 1017.9
20260831121058 67 45 12.0 16.0 0.00 0.00 0.00 73 1017.8
20260831120516 67 45 12.0 18.0 0.00 0.00 0.00 73 1017.7
20260831120016 67 45 13.0 16.0 0.00 0.00 0.00 73 1017.7
20260831115516 67 45 13.0 18.0 0.00 0.00 0.00 73 1017.7
20260831115016 67 45 12.0 17.0 0.00 0.00 0.00 73 1017.6
20260831114516 67 45 14.0 20.0 0.00 0.00 0.00 72 1017.6
20260831114016 67 45 15.0 21.0 0.00 0.00 0.00 73 1017.6
20260831113517 67 68 13.0 19.0 0.00 0.00 0.00 73 1017.7
20260831113037 67 45 15.0 21.0 0.00 0.00 0.00 72 1017.7
20260831112517 67 45 16.0 20.0 0.00 0.00 0.00 73 1017.6
20260831112037 67 45 14.0 19.0 0.00 0.00 0.00 73 1017.7
20260831111517 66 45 15.0 20.0 0.00 0.00 0.00 73 1017.7
20260831111016 66 45 18.0 21.0 0.00 0.00 0.00 73 1017.6
20260831110516 66 45 15.0 20.0 0.00 0.00 0.00 73 1017.6
20260831110017 66 45 14.0 20.0 0.00 0.00 0.00 74 1017.6
20260831105557 66 45 15.0 21.0 0.00 0.00 0.00 73 1017.7
20260831105016 66 45 15.0 21.0 0.00 0.00 0.00 73 1017.6
20260831104516 66 45 16.0 22.0 0.00 0.00 0.00 73 1017.4
20260831104016 66 45 14.0 19.0 0.00 0.00 0.00 73 1017.3
20260831103537 66 45 13.0 16.0 0.00 0.00 0.00 74 1017.3
20260831103017 66 45 13.0 18.0 0.00 0.00 0.00 74 1017.3
20260831102516 66 45 15.0 22.0 0.00 0.00 0.00 73 1017.2
20260831102016 66 45 16.0 21.0 0.00 0.00 0.00 73 1017.0
20260831101516 66 45 18.0 23.0 0.00 0.00 0.00 72 1017.0
20260831101016 66 45 18.0 22.0 0.00 0.00 0.00 72 1017.0
20260831100516 66 45 16.0 21.0 0.00 0.00 0.00 72 1016.9
20260831100016 66 45 15.0 19.0 0.00 0.00 0.00 72 1016.8
20260831095517 66 45 15.0 20.0 0.00 0.00 0.00 72 1016.8
20260831095037 66 45 16.0 22.0 0.00 0.00 0.00 71 1016.8
20260831094516 66 45 15.0 21.0 0.00 0.00 0.00 71 1016.6
20260831094017 66 45 15.0 21.0 0.00 0.00 0.00 71 1016.6
20260831093516 67 45 16.0 22.0 0.00 0.00 0.00 72 1016.6
20260831093036 67 45 16.0 23.0 0.00 0.00 0.00 71 1016.5
20260831092536 67 45 18.0 22.0 0.00 0.00 0.00 71 1016.4
20260831092037 67 45 16.0 21.0 0.00 0.00 0.00 71 1016.4
20260831091537 67 45 19.0 24.0 0.00 0.00 0.00 71 1016.4
20260831091016 67 45 18.0 24.0 0.00 0.00 0.00 71 1016.3
20260831090516 67 45 16.0 21.0 0.00 0.00 0.00 71 1016.3
20260831090016 67 45 16.0 27.0 0.00 0.00 0.00 70 1016.2
20260831085557 67 45 19.0 27.0 0.00 0.00 0.00 70 1016.2
20260831085016 67 45 16.0 23.0 0.00 0.00 0.00 71 1016.2
20260831084516 67 45 15.0 20.0 0.00 0.00 0.00 75 1016.3
20260831084016 67 45 14.0 18.0 0.00 0.00 0.00 76 1016.2
20260831083537 67 45 14.0 18.0 0.00 0.00 0.00 75 1016.2
20260831083016 67 45 14.0 19.0 0.00 0.00 0.00 76 1016.1
20260831082536 67 23 14.0 18.0 0.00 0.00 0.00 76 1016.0
20260831082016 67 45 13.0 16.0 0.00 0.00 0.00 76 1016.0
20260831081536 67 45 12.0 18.0 0.00 0.00 0.00 76 1015.9
20260831081016 67 45 12.0 16.0 0.00 0.00 0.00 75 1015.9
20260831080517 67 45 11.0 16.0 0.00 0.00 0.00 75 1015.8
20260831080017 67 45 11.0 14.0 0.00 0.00 0.00 75 1015.8
20260831075536 67 45 11.0 15.0 0.00 0.00 0.00 74 1015.7
20260831075057 67 45 11.0 15.0 0.00 0.00 0.00 74 1015.7
20260831074516 67 45 12.0 15.0 0.00 0.00 0.00 74 1015.7
20260831074017 67 45 10.0 14.0 0.00 0.00 0.00 74 1015.6
20260831073516 67 45 10.0 14.0 0.00 0.00 0.00 75 1015.6
20260831073036 67 45 10.0 13.0 0.00 0.00 0.00 75 1015.6
20260831072516 67 45 10.0 14.0 0.00 0.00 0.00 76 1015.7
20260831072016 67 45 9.0 13.0 0.00 0.00 0.00 77 1015.6
20260831071516 67 45 9.0 12.0 0.00 0.00 0.00 76 1015.7
20260831071016 67 45 9.0 13.0 0.00 0.00 0.00 77 1015.6
20260831070516 67 45 8.0 11.0 0.00 0.00 0.00 77 1015.6
20260831070016 67 45 7.0 10.0 0.00 0.00 0.00 77 1015.5
20260831065516 67 45 8.0 12.0 0.00 0.00 0.00 77 1015.5
20260831065016 67 45 9.0 13.0 0.00 0.00 0.00 77 1015.4
20260831064517 67 45 10.0 14.0 0.00 0.00 0.00 77 1015.5
20260831064016 68 45 10.0 14.0 0.00 0.00 0.00 78 1015.4
20260831063516 68 45 10.0 13.0 0.00 0.00 0.00 78 1015.3
20260831063016 68 45 10.0 14.0 0.00 0.00 0.00 78 1015.3
20260831062516 68 45 11.0 14.0 0.00 0.00 0.00 78 1015.3
20260831062016 68 45 11.0 14.0 0.00 0.00 0.00 78 1015.2
20260831061536 68 45 10.0 14.0 0.00 0.00 0.00 78 1015.2
20260831061036 68 45 11.0 15.0 0.00 0.00 0.00 79 1015.2
20260831060516 68 45 10.0 16.0 0.00 0.00 0.00 79 1015.2
20260831060017 68 45 10.0 13.0 0.00 0.00 0.00 80 1015.1
20260831055536 68 45 10.0 13.0 0.00 0.00 0.00 80 1015.1
20260831055036 68 45 11.0 14.0 0.00 0.00 0.00 80 1015.0
20260831054516 68 23 11.0 14.0 0.00 0.00 0.00 81 1015.0
20260831054016 68 23 9.0 12.0 0.00 0.00 0.00 82 1014.9
20260831053515 68 23 10.0 13.0 0.00 0.00 0.00 82 1014.8
20260831053016 69 23 10.0 13.0 0.00 0.00 0.00 82 1014.7
20260831052516 69 23 11.0 13.0 0.00 0.00 0.00 82 1014.8
20260831052016 69 23 11.0 13.0 0.00 0.00 0.00 82 1014.8
20260831051516 69 23 12.0 16.0 0.00 0.00 0.00 82 1014.8
20260831051016 69 23 12.0 16.0 0.00 0.00 0.00 82 1014.8
20260831050516 69 23 15.0 19.0 0.00 0.00 0.00 82 1014.9
20260831050036 69 23 14.0 19.0 0.00 0.00 0.00 81 1014.8
20260831045516 69 23 12.0 17.0 0.00 0.00 0.00 81 1014.7
20260831045016 69 338 10.0 13.0 0.00 0.00 0.00 81 1014.6
20260831044516 69 338 9.0 11.0 0.00 0.00 0.00 80 1014.5
20260831044016 69 338 9.0 11.0 0.00 0.00 0.00 80 1014.5
20260831043516 69 338 9.0 11.0 0.00 0.00 0.00 80 1014.4
20260831043016 70 338 10.0 13.0 0.00 0.00 0.00 79 1014.4
20260831042516 70 338 10.0 12.0 0.00 0.00 0.00 79 1014.3
20260831042016 70 338 10.0 12.0 0.00 0.00 0.00 79 1014.3
20260831041516 70 338 11.0 13.0 0.00 0.00 0.00 79 1014.2
20260831041016 70 338 12.0 14.0 0.00 0.00 0.00 79 1014.2
20260831040516 71 338 13.0 16.0 0.00 0.00 0.00 78 1014.2
20260831040016 71 338 12.0 15.0 0.00 0.00 0.00 77 1014.2
20260831035536 71 338 12.0 17.0 0.00 0.00 0.00 76 1014.2
20260831035017 72 338 12.0 17.0 0.00 0.00 0.00 75 1014.2
20260831034516 72 338 13.0 16.0 0.00 0.00 0.00 75 1014.2
20260831034036 73 338 15.0 20.0 0.00 0.00 0.00 74 1014.2
20260831033516 74 338 15.0 21.0 0.00 0.00 0.00 72 1014.2
20260831033037 74 338 13.0 20.0 0.00 0.00 0.00 72 1014.1
20260831032516 74 293 10.0 19.0 0.00 0.00 0.00 73 1014.1
20260831032016 74 293 9.0 14.0 0.00 0.00 0.00 73 1014.1
20260831031516 73 293 9.0 13.0 0.00 0.00 0.00 73 1014.1
20260831031016 73 270 8.0 14.0 0.00 0.00 0.00 73 1014.1
20260831030516 73 270 8.0 11.0 0.00 0.00 0.00 74 1014.1
20260831030016 73 293 8.0 12.0 0.00 0.00 0.00 75 1014.2
20260831025516 72 270 9.0 13.0 0.00 0.00 0.00 75 1014.2
20260831025016 72 270 8.0 12.0 0.00 0.00 0.00 77 1014.1
20260831024517 71 270 7.0 11.0 0.00 0.00 0.00 77 1014.2
20260831024016 71 270 7.0 10.0 0.00 0.00 0.00 77 1014.2
20260831023516 71 248 8.0 10.0 0.00 0.00 0.00 76 1014.1
20260831023016 72 248 8.0 9.0 0.00 0.00 0.00 76 1014.0
20260831022517 72 270 9.0 12.0 0.00 0.00 0.00 75 1014.0
20260831022016 72 270 8.0 11.0 0.00 0.00 0.00 76 1014.1
20260831021516 71 270 9.0 12.0 0.00 0.00 0.00 76 1014.1
20260831021016 71 270 9.0 14.0 0.00 0.00 0.00 77 1014.1
20260831020516 70 248 8.0 11.0 0.00 0.00 0.00 77 1014.1
20260831020016 71 248 8.0 10.0 0.00 0.00 0.00 76 1014.1
20260831015516 71 248 8.0 10.0 0.00 0.00 0.00 76 1014.1
20260831015016 71 248 8.0 10.0 0.00 0.00 0.00 75 1014.0
20260831014516 72 248 8.0 9.0 0.00 0.00 0.00 74 1014.1
20260831014016 72 248 7.0 9.0 0.00 0.00 0.00 73 1014.0
20260831013516 72 248 8.0 11.0 0.00 0.00 0.00 73 1013.9
20260831013016 73 248 9.0 11.0 0.00 0.00 0.00 73 1013.8
20260831012556 73 248 9.0 12.0 0.00 0.00 0.00 73 1013.7
20260831012016 72 270 11.0 14.0 0.00 0.00 0.00 73 1013.7
20260831011516 72 248 10.0 15.0 0.00 0.00 0.00 74 1013.6
20260831011016 71 248 10.0 15.0 0.00 0.00 0.00 74 1013.6
20260831010516 71 248 9.0 13.0 0.00 0.00 0.00 74 1013.6
20260831010016 72 248 10.0 13.0 0.00 0.00 0.00 74 1013.5
20260831005536 72 248 10.0 14.0 0.00 0.00 0.00 73 1013.6
20260831005016 72 248 11.0 14.0 0.00 0.00 0.00 73 1013.5
20260831004517 72 248 11.0 14.0 0.00 0.00 0.00 73 1013.5
20260831004037 72 248 12.0 16.0 0.00 0.00 0.00 72 1013.5
20260831003557 72 248 12.0 16.0 0.00 0.00 0.00 73 1013.4
20260831003036 72 248 11.0 15.0 0.00 0.00 0.00 73 1013.4
20260831002516 72 248 11.0 16.0 0.00 0.00 0.00 74 1013.4
20260831002016 71 248 10.0 14.0 0.00 0.00 0.00 74 1013.4
20260831001536 71 248 11.0 15.0 0.00 0.00 0.00 74 1013.2
20260831001036 71 248 10.0 13.0 0.00 0.00 0.00 74 1013.3
20260831000516 71 248 10.0 13.0 0.00 0.00 0.00 74 1013.1
20260831000016 71 248 10.0 14.0 0.00 0.00 0.00 74 1013.0
20260830235516 71 248 11.0 15.0 0.00 0.00 0.00 73 1013.0
20260830235016 72 248 11.0 14.0 0.00 0.00 0.00 73 1012.9
20260830234536 72 248 11.0 15.0 0.00 0.00 0.00 73 1012.9
20260830234016 72 248 10.0 14.0 0.00 0.00 0.00 72 1012.9
20260830233516 72 248 9.0 14.0 0.00 0.00 0.00 71 1012.9
20260830233016 72 248 11.0 16.0 0.00 0.00 0.00 71 1012.9
20260830232516 72 248 11.0 15.0 0.00 0.00 0.00 71 1012.9
20260830232016 72 248 11.0 14.0 0.00 0.00 0.00 72 1012.9
20260830231517 72 248 10.0 15.0 0.00 0.00 0.00 72 1013.0